[[{"header":{"parameterUnit":"m.s-1","parameterCategory":1,"la1":30.2991,"la2":30.254,"lo1":-89.0895,"lo2":-89.0444,"dy":0.0017,"dx":0.0017,"nx":28,"ny":28,"refTime":"2023-07-25T21:00:00:Z","depth":0,"parameterNumber":2,"parameterNumberName":"U-component_of_WINDS"},"data":[0,0,0,0,0,0,0,0,0,0,0,0,0,0,0,0,0,0,0,0,0,0,0,0,0,0,0,0,0,0,0,0,0,0,0,0,0,0,0,0,0,0,0,0,0,0,0,0,0,0,0,0,0,0,0,0,0,0,0.6553,0.6554,0,0.6677,0.6679,0.668,0.6729,0.6728,0.6728,0.6728,0.6856,0.686,0.6864,0,0,0,0,0,0,0,0,0,0,0,0,0,0.6357,0.636,0.6553,0.6554,0.6556,0.6677,0.6679,0.6681,0.6729,0.6728,0.6728,0.6728,0.6855,0.686,0.6864,0,0,0,0,0,0,0,0,0,0,0,0,0,0.6457,0.6361,0.6552,0.6594,0.6599,0.6677,0.6679,0.6681,0.6729,0.6728,0.6728,0.6727,0.6854,0.6859,0.6865,0.691,0,0,0.6882,0.6884,0,0,0,0,0,0,0,0,0.6452,0.6465,0.6587,0.6592,0.6597,0.6687,0.6657,0.6758,0.6729,0.668,0.6728,0.6727,0.6801,0.6811,0.6835,0.6916,0.6921,0.6882,0.6886,0.6888,0.689,0,0,0,0,0,0,0,0.6445,0.646,0.6602,0.6588,0.6595,0.6607,0.6621,0.6676,0.6742,0.6684,0.6688,0.6702,0.6803,0.683,0.6838,0.6923,0.6882,0.6887,0.6891,0.6893,0.7047,0.7047,0,0,0,0,0,0,0.6431,0.6453,0.6598,0.6606,0.6522,0.6611,0.6626,0.6659,0.6741,0.6753,0.6702,0.6704,0.682,0.6832,0.6843,0.6901,0.6888,0.6894,0.6897,0.7046,0.7047,0.7048,0,0,0,0,0,0,0.6426,0.6443,0.6593,0.6531,0.6551,0.6615,0.6651,0.6661,0.6688,0.6755,0.6767,0.6717,0.682,0.6835,0.6893,0.6906,0.6896,0.6901,0.7045,0.7046,0.7047,0.7017,0,0,0,0,0,0,0.642,0.6441,0.6459,0.6531,0.6554,0.664,0.6652,0.6664,0.6697,0.67,0.6772,0.6783,0.6821,0.6884,0.6898,0.6914,0.6906,0.7044,0.7046,0.7047,0.7017,0.7017,0.7017,0,0,0,0,0,0.6413,0.6446,0.646,0.6477,0.6577,0.6641,0.6654,0.6697,0.6698,0.6716,0.6759,0.6781,0.6902,0.6889,0.6906,0.6923,0.7044,0.7045,0.7047,0.7017,0.7017,0.7017,0,0,0,0,0,0,0.6374,0.6456,0.6472,0.6529,0.6577,0.6649,0.6673,0.6695,0.6745,0.6746,0.6797,0.6812,0.6865,0.69,0.6885,0.6971,0.6974,0.6979,0.6946,0.6947,0.6946,0.6937,0.691,0,0,0,0,0,0.6372,0.6417,0.6486,0.6529,0.6553,0.6609,0.6638,0.6666,0.6719,0.674,0.6787,0.6838,0.6887,0.6919,0.6968,0.7022,0.7038,0.7042,0.7042,0.7041,0.7045,0.7076,0.7078,0.7053,0.7053,0.7053,0,0,0.6369,0.6419,0.6444,0.6523,0.6564,0.6609,0.6626,0.6673,0.6707,0.6747,0.6804,0.684,0.69,0.6956,0.6983,0.6986,0.7055,0.7043,0.7042,0.7047,0.7078,0.708,0.7082,0.7054,0.7054,0.7054,0,0,0.6385,0.6427,0.6468,0.6509,0.657,0.6607,0.6617,0.6685,0.671,0.6768,0.6799,0.684,0.6925,0.6966,0.6998,0.7028,0.705,0.7043,0.7042,0.7071,0.7073,0.7075,0.7086,0.7089,0.7047,0.7046,0.7046,0,0.6373,0.6442,0.6486,0.6532,0.6565,0.6603,0.6645,0.6682,0.6756,0.6779,0.6782,0.6888,0.6931,0.6996,0.7003,0.7028,0.7041,0.7035,0.7069,0.7072,0.7074,0.7085,0.7089,0.7045,0.7045,0.7046,0.7046,0,0.6424,0.6471,0.6496,0.6567,0.6603,0.6646,0.6697,0.6729,0.6754,0.679,0.6848,0.6901,0.6961,0.6979,0.7004,0.7048,0.7048,0.7059,0.7064,0.7075,0.7086,0.709,0.7043,0.7044,0.7044,0.7045,0,0,0.6419,0.6513,0.6522,0.6554,0.6625,0.6662,0.6707,0.6765,0.6791,0.6841,0.688,0.695,0.696,0.6996,0.7027,0.7052,0.7073,0.7061,0.7063,0.7061,0.7124,0.7114,0.7119,0.7087,0.7088,0.7089,0.7119,0,0.6445,0.6526,0.6567,0.6631,0.6675,0.6711,0.675,0.6797,0.6832,0.6875,0.6914,0.6962,0.6973,0.6995,0.7022,0.7064,0.7086,0.7063,0.7124,0.7125,0.7108,0.7124,0.7115,0.714,0.7123,0.7124,0.7125,0,0.6486,0.6535,0.6603,0.6667,0.6687,0.6722,0.6778,0.6818,0.6873,0.6896,0.6936,0.6965,0.7013,0.7014,0.7081,0.7065,0.7092,0.7116,0.7118,0.7126,0.7126,0.7132,0.715,0.7153,0.7132,0.7131,0.7131,0,0.6475,0.6559,0.661,0.6636,0.6713,0.6736,0.6769,0.6823,0.6855,0.6905,0.6926,0.6981,0.7011,0.7052,0.7095,0.7092,0.7158,0.7163,0.7179,0.7178,0.7192,0.719,0.7213,0.7209,0.7209,0.7209,0.7209,0,0.65,0.654,0.6606,0.6638,0.6683,0.673,0.6774,0.681,0.6857,0.6896,0.6931,0.6967,0.7022,0.7064,0.7099,0.7149,0.7162,0.7183,0.7191,0.7179,0.7177,0.7198,0.7197,0.721,0.721,0.7209,0.7209,0,0.6496,0.6542,0.66,0.6668,0.6686,0.6717,0.6775,0.6807,0.6843,0.6892,0.6906,0.6963,0.7016,0.7063,0.7132,0.7155,0.7206,0.7217,0.7187,0.7192,0.7205,0.7203,0.7243,0.7251,0.7241,0.7241,0.7241,0,0.6508,0.654,0.6611,0.6639,0.6672,0.6717,0.675,0.6797,0.683,0.6893,0.6918,0.6972,0.7018,0.7099,0.7147,0.7201,0.7213,0.7223,0.7221,0.7208,0.7213,0.721,0.7214,0.7223,0.7223,0.7223,0.7222,0,0.6525,0.6546,0.6593,0.6646,0.6685,0.6729,0.6775,0.6797,0.6852,0.6887,0.694,0.6976,0.7046,0.71,0.7158,0.7193,0.7217,0.7223,0.7229,0.7218,0.7199,0.7209,0.7186,0.7222,0.7222,0.7222,0.7222,0.7222,0.653,0.656,0.6614,0.6664,0.6703,0.6745,0.6778,0.6818,0.6864,0.6924,0.6949,0.7003,0.7056,0.7137,0.7171,0.7214,0.7219,0.7228,0.7231,0.7232,0.723,0.7192,0.7225,0.7225,0.7225,0.7225,0.7225,0,0.6549,0.6585,0.6631,0.6694,0.6733,0.6752,0.6803,0.6835,0.6882,0.6929,0.6973,0.7034,0.7086,0.7138,0.7193,0.7217,0.7229,0.723,0.7229,0.7236,0.7223,0.7212,0.7219,0.7219,0.7219,0.7219,0.7219,0.7219,0.6563,0.6614,0.6641,0.6711,0.6748,0.6801,0.6829,0.6867,0.6905,0.6972,0.7015,0.7048,0.7097,0.7155,0.7204,0.7218,0.7236,0.7233,0.725,0.7237,0.7237,0.7237,0.7227,0.7237,0.7237,0.726,0.726,0.726]},{"header":{"parameterUnit":"m.s-1","parameterCategory":1,"la1":30.2991,"la2":30.254,"lo1":-89.0895,"lo2":-89.0444,"dy":0.0017,"dx":0.0017,"nx":28,"ny":28,"refTime":"2023-07-25T21:00:00:Z","depth":0,"parameterNumber":3,"parameterNumberName":"V-component_of_WINDS"},"data":[0,0,0,0,0,0,0,0,0,0,0,0,0,0,0,0,0,0,0,0,0,0,0,0,0,0,0,0,0,0,0,0,0,0,0,0,0,0,0,0,0,0,0,0,0,0,0,0,0,0,0,0,0,0,0,0,0,0,3.1799,3.1799,0,3.1743,3.1742,3.1741,3.1707,3.1707,3.1707,3.1706,3.1642,3.1641,3.1639,0,0,0,0,0,0,0,0,0,0,0,0,0,3.1872,3.1871,3.1799,3.1799,3.1798,3.1743,3.1742,3.1741,3.1707,3.1707,3.1707,3.1706,3.1643,3.1641,3.1639,0,0,0,0,0,0,0,0,0,0,0,0,0,3.183,3.187,3.1799,3.1774,3.1771,3.1743,3.1742,3.1741,3.1707,3.1707,3.1707,3.1706,3.1643,3.1641,3.1639,3.1629,0,0,3.1631,3.163,0,0,0,0,0,0,0,0,3.1833,3.1828,3.1779,3.1776,3.1773,3.1732,3.1744,3.1703,3.1707,3.1731,3.1706,3.1706,3.1672,3.1667,3.1657,3.1626,3.1623,3.1631,3.163,3.1629,3.1628,0,0,0,0,0,0,0,3.1836,3.183,3.1777,3.1778,3.1774,3.1764,3.1758,3.1736,3.1703,3.1729,3.1727,3.1721,3.167,3.1659,3.1655,3.1622,3.1631,3.1629,3.1628,3.1627,3.158,3.158,0,0,0,0,0,0,3.1843,3.1833,3.1778,3.1775,3.1803,3.1763,3.1756,3.1745,3.1703,3.1697,3.1721,3.1719,3.1663,3.1658,3.1652,3.1638,3.1629,3.1627,3.1625,3.158,3.158,3.158,0,0,0,0,0,0,3.1845,3.1839,3.1781,3.1803,3.1795,3.1762,3.175,3.1744,3.1733,3.1697,3.1691,3.1716,3.1663,3.1656,3.1635,3.1636,3.1626,3.1623,3.158,3.158,3.158,3.161,0,0,0,0,0,0,3.1847,3.184,3.1837,3.1803,3.1794,3.1766,3.175,3.1743,3.173,3.1727,3.1691,3.1685,3.1662,3.1639,3.1633,3.1632,3.1622,3.1579,3.158,3.158,3.1609,3.1611,3.1613,0,0,0,0,0,3.185,3.1846,3.1837,3.1831,3.179,3.1767,3.1761,3.1737,3.173,3.1726,3.1703,3.1686,3.1637,3.1637,3.163,3.1629,3.1579,3.158,3.158,3.1608,3.1611,3.1613,0,0,0,0,0,0,3.1878,3.1841,3.1831,3.1816,3.1795,3.1761,3.1755,3.1741,3.1719,3.1717,3.1686,3.1678,3.1661,3.1642,3.1644,3.1617,3.1606,3.1605,3.163,3.1632,3.1634,3.1639,3.162,0,0,0,0,0,3.1883,3.1869,3.1837,3.1827,3.1817,3.1788,3.1777,3.176,3.1736,3.1727,3.1702,3.1678,3.1657,3.1643,3.1622,3.1606,3.1597,3.1602,3.1604,3.1606,3.1605,3.1595,3.1597,3.1581,3.1581,3.1581,0,0,3.1892,3.187,3.1863,3.1832,3.1814,3.1798,3.1781,3.1765,3.1753,3.1723,3.1703,3.1685,3.1655,3.1637,3.1628,3.1621,3.1608,3.1606,3.1608,3.1606,3.1596,3.1597,3.1599,3.1582,3.1582,3.1582,0,0,3.1901,3.1883,3.1874,3.1856,3.183,3.1811,3.1808,3.1777,3.1764,3.1744,3.1722,3.1706,3.167,3.165,3.1636,3.1638,3.1621,3.1632,3.1643,3.1634,3.1636,3.1636,3.1637,3.1638,3.1632,3.1632,3.1632,0,3.1915,3.1893,3.187,3.1856,3.1843,3.1818,3.1807,3.179,3.1757,3.1748,3.1742,3.1698,3.1676,3.1653,3.1654,3.1643,3.1639,3.1636,3.1638,3.1638,3.1639,3.1639,3.1639,3.1633,3.1633,3.1633,3.1633,0,3.1911,3.1896,3.1891,3.1863,3.1849,3.1836,3.181,3.1798,3.1783,3.1764,3.1744,3.1717,3.1691,3.1684,3.1668,3.1659,3.1656,3.1644,3.1632,3.1642,3.1642,3.1642,3.1635,3.1635,3.1634,3.1634,0,0,3.1935,3.1896,3.1894,3.1881,3.185,3.1837,3.1823,3.1799,3.179,3.1768,3.1755,3.1726,3.1716,3.1699,3.168,3.1673,3.1676,3.1662,3.166,3.1665,3.1664,3.1673,3.1674,3.1665,3.1665,3.1665,3.1667,0,3.1939,3.1915,3.1895,3.1878,3.1863,3.184,3.1828,3.1807,3.1789,3.1772,3.1752,3.1732,3.172,3.171,3.1701,3.1678,3.1675,3.1677,3.1651,3.165,3.1659,3.1673,3.1682,3.1685,3.1666,3.1666,3.1666,0,3.1941,3.1922,3.1905,3.1877,3.187,3.1859,3.1836,3.1821,3.1796,3.1784,3.1766,3.1748,3.173,3.1721,3.1696,3.1698,3.1686,3.1673,3.1672,3.1668,3.1659,3.1669,3.1685,3.1686,3.1666,3.1666,3.1666,0,3.196,3.193,3.1916,3.1906,3.1872,3.1866,3.1851,3.1827,3.1814,3.1793,3.1784,3.176,3.1747,3.1728,3.1703,3.1699,3.1681,3.1669,3.1668,3.1669,3.1665,3.1665,3.1679,3.1658,3.1658,3.1658,3.1658,0,3.1966,3.1956,3.1925,3.1916,3.1904,3.1879,3.1867,3.185,3.1829,3.1815,3.1793,3.178,3.1748,3.1731,3.1711,3.1693,3.1687,3.1675,3.167,3.1677,3.1678,3.1668,3.1667,3.1658,3.1658,3.1658,3.1658,0,3.1985,3.1964,3.1947,3.1918,3.191,3.1902,3.1876,3.1866,3.1847,3.183,3.1825,3.1795,3.1774,3.1747,3.1717,3.1703,3.1687,3.1679,3.1696,3.1693,3.1694,3.1694,3.17,3.17,3.168,3.1681,3.1681,0,3.1991,3.1983,3.1953,3.1944,3.1931,3.1915,3.1903,3.1878,3.1866,3.1838,3.1831,3.1808,3.1789,3.1756,3.173,3.1707,3.1698,3.1702,3.1694,3.1701,3.1697,3.1698,3.1697,3.1703,3.1704,3.1704,3.1704,0,3.2002,3.1993,3.1977,3.1957,3.1944,3.1927,3.1908,3.1901,3.1872,3.1859,3.1839,3.1824,3.1794,3.1772,3.1746,3.1728,3.1711,3.1707,3.1706,3.1713,3.1723,3.1717,3.1701,3.1707,3.1707,3.1706,3.1706,3.1706,3.2014,3.2007,3.1985,3.1968,3.1952,3.1936,3.1926,3.1907,3.189,3.1865,3.1851,3.1831,3.1806,3.177,3.1753,3.1736,3.1729,3.1727,3.1726,3.1726,3.1728,3.1727,3.173,3.173,3.173,3.173,3.173,0,3.2025,3.2011,3.1995,3.1972,3.1958,3.1946,3.1925,3.1914,3.1897,3.1877,3.1859,3.1835,3.1814,3.1787,3.1764,3.1755,3.1746,3.1749,3.1749,3.1745,3.1735,3.1739,3.1757,3.1757,3.1757,3.1757,3.1757,3.1757,3.2029,3.2015,3.2003,3.1981,3.1966,3.1948,3.1937,3.1921,3.1905,3.188,3.1863,3.1847,3.1824,3.1798,3.1778,3.177,3.1762,3.1767,3.1757,3.1748,3.1746,3.1744,3.1747,3.1766,3.1766,3.1769,3.1769,3.1769]}]]